Pasco, WA
on Sunday, February 17, 2013

Sunday
Previous Day Next Day
Daily Summary
 ActualAverageRecord
Temperature
Mean Temperature °F 39°F  
Max Temperature 53°F 50°F 68°F (2007)
Min Temperature 22°F 28°F 11°F (1993)
Degree Days
Heating Degree Days 27 26  
Month to date heating degree days 437 461  
Since 1 July heating degree days 3348 3612  
Cooling Degree Days 0 0  
Month to date cooling degree days 0 0  
Year to date cooling degree days 0 0  
Moisture
Dew Point 26°F   
Average Humidity 66    
Maximum Humidity 96    
Minimum Humidity 35    
Precipitation
Precipitation 0.00 in in 0.40 in (1989)
Month to date precipitation T  
Year to date precipitation 0.36  
Snow
Snow 0.00 in in in ()
Snow Depth 0.00 in   
Wind
Wind Speed 8 mph   
Max Wind Speed 18 mph   
Max Gust Speed 22 mph   
Visibility 10 miles   
Events     

Key: T is trace of precipitation, MM is missing value
Source: NWS Daily Summary
Time(PST)TemperatureDew PointHumidity Pressure Visibility Wind DirectionWind SpeedGust SpeedPrecipitationEvents Conditions
12:53 AM 39.9°F 30.0°F 68% 30.11 in 10.0 miles WSW 11.5 mph - N/A   Clear
1:53 AM 39.0°F 28.9°F 67% 30.11 in 10.0 miles WSW 15.0 mph - N/A   Clear
2:53 AM 34.0°F 28.0°F 79% 30.12 in 10.0 miles East 4.6 mph - N/A   Clear
3:53 AM 30.0°F 25.0°F 82% 30.13 in 10.0 miles Calm Calm - N/A   Clear
4:53 AM 28.9°F 25.0°F 85% 30.14 in 10.0 miles Calm Calm - N/A   Clear
5:53 AM 24.1°F 21.0°F 88% 30.16 in 10.0 miles Calm Calm - N/A   Clear
6:53 AM 23.0°F 21.0°F 92% 30.16 in 10.0 miles Calm Calm - N/A   Clear
7:53 AM 28.9°F 25.0°F 85% 30.17 in 10.0 miles Calm Calm - N/A   Clear
8:53 AM 42.1°F 30.0°F 62% 30.17 in 10.0 miles SSW 11.5 mph - N/A   Clear
10:53 AM 48.9°F 27.0°F 43% 30.18 in 10.0 miles SW 10.4 mph - N/A   Clear
11:53 AM 51.1°F 27.0°F 39% 30.17 in 10.0 miles WSW 12.7 mph - N/A   Clear
12:53 PM 52.0°F 26.1°F 37% 30.15 in 10.0 miles SW 12.7 mph - N/A   Clear
1:53 PM 52.0°F 25.0°F 35% 30.14 in 10.0 miles SSW 12.7 mph - N/A   Clear
2:53 PM 52.0°F 25.0°F 35% 30.13 in 10.0 miles SW 9.2 mph 16.1 mph N/A   Clear
3:53 PM 51.1°F 26.1°F 38% 30.13 in 10.0 miles SSW 12.7 mph - N/A   Clear
5:53 PM 44.1°F 26.1°F 49% 30.13 in 10.0 miles South 6.9 mph - N/A   Clear
6:53 PM 42.1°F 26.1°F 53% 30.13 in 10.0 miles South 5.8 mph - N/A   Clear
7:53 PM 41.0°F 27.0°F 57% 30.14 in 10.0 miles SSE 6.9 mph - N/A   Clear
9:53 PM 37.0°F 26.1°F 65% 30.14 in 10.0 miles SSW 3.5 mph - N/A   Clear
10:53 PM 36.0°F 25.0°F 64% 30.14 in 10.0 miles SSW 9.2 mph - N/A   Clear
11:53 PM 33.1°F 25.0°F 72% 30.13 in 10.0 miles NE 4.6 mph - N/A   Clear
Moon Phase
Feb. 17 Feb. 17 Feb. 25 Mar. 04 Mar. 11
Sunrise:06:55 AM (PST) Moon Rise:10:25 AM (PST)2/17
Sunset:05:25 PM (PST) Moon Set:12:52 AM (PST)2/17

Copyright © 2014 The Weather Underground, Inc.